Location: Gulgong NSW 2852, Australia
(32.2976°S, 149.5548°E)
Time: 09:04:39
(UTC+11:00)

X-37B - Pass Details

Date: 14 December 2021
Orbit: 334 x 337 km, 45.0° (Epoch: 11 January)

Event Time Altitude Azimuth Distance (km) Brightness Sun altitude
Exits shadow 03:48:52 38° 180° (S) 541 1.6 -20.9°
Drops below altitude 10° 03:51:09 10° 137° (SE) 1,296 4.4 -20.5°
Sets 03:53:15 0° 130° (SE) 2,140 5.9 -20.2°
